Total_Precipitation_Accumulation
0.36 0.49 0.51 0.41 0.38 0.39 0.38 0.43 0.56 0.54 0.56 0.68 0.84 0.90 0.84 0.85 0.77 0.65 0.48 0.43 0.38 0.34 0.33 0.34 0.35 0.38 0.43 0.47 0.52 0.62 0.73 0.77 0.83 0.96 1.13 1.34 1.51 1.66
0.37 0.43 0.54 0.58 0.51 0.48 0.48 0.53 0.66 0.66 0.66 0.72 0.85 0.88 0.77 0.62 0.57 0.58 0.49 0.47 0.42 0.34 0.29 0.29 0.31 0.32 0.31 0.34 0.33 0.34 0.38 0.42 0.48 0.55 0.63 0.75 0.91 1.18
0.51 0.51 0.50 0.62 0.70 0.65 0.63 0.64 0.68 0.74 0.73 0.70 0.83 0.87 0.76 0.57 0.49 0.51 0.52 0.53 0.44 0.39 0.32 0.28 0.29 0.30 0.30 0.31 0.32 0.30 0.28 0.28 0.29 0.33 0.37 0.42 0.47 0.53
0.55 0.71 0.72 0.67 0.65 0.64 0.63 0.64 0.70 0.81 0.82 0.73 0.78 0.86 0.82 0.72 0.60 0.52 0.45 0.46 0.49 0.49 0.42 0.36 0.32 0.31 0.29 0.29 0.29 0.29 0.30 0.29 0.26 0.24 0.24 0.26 0.28 0.32
0.38 0.61 0.80 0.93 0.85 0.67 0.58 0.56 0.64 0.78 0.87 0.83 0.83 0.95 0.98 0.88 0.72 0.56 0.46 0.43 0.42 0.45 0.46 0.41 0.36 0.34 0.32 0.29 0.28 0.27 0.24 0.23 0.23 0.22 0.20 0.19 0.19 0.20
0.26 0.36 0.49 0.69 0.86 0.91 0.78 0.65 0.64 0.71 0.80 0.84 0.96 1.18 1.21 1.09 0.83 0.66 0.58 0.49 0.44 0.38 0.37 0.37 0.36 0.33 0.31 0.31 0.28 0.25 0.24 0.22 0.21 0.22 0.20 0.19 0.18 0.16
0.20 0.25 0.28 0.36 0.49 0.65 0.76 0.81 0.78 0.73 0.78 0.86 1.09 1.51 1.54 1.29 0.92 0.73 0.67 0.64 0.54 0.46 0.39 0.32 0.30 0.27 0.26 0.29 0.31 0.29 0.26 0.23 0.21 0.20 0.20 0.20 0.19 0.18
0.26 0.26 0.23 0.22 0.25 0.35 0.47 0.61 0.75 0.79 0.80 0.86 1.06 1.38 1.54 1.43 1.18 0.97 0.76 0.63 0.58 0.54 0.47 0.44 0.39 0.34 0.29 0.25 0.27 0.28 0.28 0.25 0.22 0.20 0.18 0.18 0.18 0.18
0.32 0.35 0.25 0.15 0.20 0.25 0.31 0.38 0.47 0.57 0.70 0.80 0.94 1.16 1.45 1.58 1.41 1.06 0.89 0.80 0.65 0.58 0.56 0.54 0.51 0.45 0.39 0.34 0.36 0.30 0.29 0.28 0.25 0.22 0.20 0.18 0.16 0.16
0.32 0.36 0.34 0.28 0.26 0.28 0.31 0.31 0.32 0.36 0.43 0.55 0.70 0.94 1.23 1.55 1.68 1.44 1.23 1.09 0.90 0.78 0.63 0.58 0.59 0.52 0.45 0.40 0.43 0.37 0.31 0.31 0.30 0.26 0.23 0.22 0.20 0.18
0.32 0.36 0.39 0.37 0.27 0.21 0.26 0.27 0.28 0.30 0.32 0.38 0.50 0.69 0.95 1.25 1.57 1.69 1.41 1.08 0.95 0.80 0.67 0.57 0.54 0.58 0.57 0.46 0.44 0.47 0.39 0.34 0.33 0.32 0.29 0.27 0.24 0.24
0.46 0.50 0.45 0.39 0.32 0.21 0.23 0.27 0.26 0.26 0.30 0.31 0.34 0.45 0.62 0.87 1.19 1.37 1.38 1.09 0.87 0.77 0.57 0.49 0.49 0.51 0.56 0.50 0.40 0.39 0.39 0.40 0.40 0.36 0.35 0.34 0.33 0.25
0.55 0.65 0.62 0.47 0.34 0.25 0.23 0.25 0.23 0.27 0.33 0.35 0.36 0.41 0.55 0.75 0.93 1.16 1.28 1.18 0.93 0.69 0.55 0.50 0.43 0.44 0.44 0.43 0.41 0.38 0.35 0.34 0.34 0.36 0.38 0.39 0.41 0.34
0.59 0.77 0.81 0.66 0.49 0.36 0.28 0.24 0.22 0.22 0.29 0.33 0.35 0.36 0.43 0.56 0.75 1.00 1.21 1.22 1.08 0.86 0.69 0.62 0.52 0.42 0.36 0.32 0.33 0.35 0.36 0.34 0.33 0.32 0.33 0.43 0.43 0.45
0.56 0.80 0.91 0.78 0.65 0.51 0.40 0.35 0.29 0.25 0.28 0.29 0.28 0.28 0.33 0.44 0.63 0.93 1.23 1.34 1.25 1.05 0.89 0.70 0.57 0.51 0.46 0.36 0.27 0.26 0.30 0.34 0.32 0.32 0.35 0.39 0.39 0.38
0.45 0.59 0.74 0.80 0.74 0.68 0.57 0.46 0.37 0.33 0.31 0.32 0.31 0.34 0.42 0.52 0.63 0.76 1.03 1.23 1.24 1.12 0.95 0.79 0.64 0.56 0.52 0.45 0.33 0.25 0.23 0.27 0.30 0.31 0.35 0.40 0.44 0.42
0.45 0.58 0.74 0.86 0.88 0.85 0.82 0.71 0.59 0.52 0.44 0.42 0.46 0.46 0.50 0.56 0.58 0.66 0.83 0.99 0.97 0.90 0.83 0.80 0.75 0.66 0.57 0.54 0.44 0.31 0.23 0.22 0.24 0.29 0.35 0.41 0.45 0.49
0.35 0.52 0.69 0.86 0.98 1.02 1.04 0.98 0.87 0.75 0.65 0.61 0.61 0.57 0.55 0.59 0.59 0.60 0.70 0.81 0.83 0.81 0.77 0.70 0.69 0.70 0.65 0.57 0.48 0.37 0.27 0.23 0.24 0.28 0.32 0.36 0.41 0.43
0.23 0.40 0.55 0.71 0.88 1.02 1.05 1.01 0.93 0.89 0.87 0.84 0.81 0.75 0.66 0.63 0.64 0.61 0.61 0.71 0.79 0.79 0.81 0.75 0.64 0.55 0.55 0.48 0.38 0.31 0.29 0.27 0.28 0.32 0.35 0.32 0.32 0.36
0.20 0.35 0.48 0.61 0.76 0.93 0.98 0.98 0.99 1.00 0.99 0.92 0.92 0.89 0.82 0.73 0.70 0.67 0.62 0.61 0.69 0.76 0.78 0.76 0.63 0.48 0.39 0.37 0.36 0.31 0.26 0.31 0.32 0.32 0.36 0.37 0.36 0.41
0.29 0.34 0.42 0.53 0.69 0.86 0.98 1.02 1.04 1.01 0.97 0.96 0.95 0.93 0.92 0.83 0.72 0.70 0.71 0.67 0.64 0.68 0.66 0.59 0.56 0.57 0.57 0.53 0.48 0.40 0.33 0.31 0.37 0.37 0.38 0.44 0.44 0.44
0.43 0.47 0.49 0.55 0.71 0.87 0.98 1.06 1.10 1.05 0.98 0.97 0.96 0.95 0.92 0.87 0.76 0.73 0.77 0.73 0.62 0.57 0.60 0.67 0.78 0.81 0.74 0.62 0.47 0.42 0.41 0.41 0.40 0.45 0.45 0.43 0.38 0.34
0.59 0.55 0.50 0.53 0.66 0.81 0.90 1.00 1.07 1.04 0.95 0.91 0.95 0.98 0.89 0.83 0.76 0.76 0.78 0.80 0.73 0.67 0.72 0.77 0.82 0.79 0.72 0.69 0.63 0.53 0.46 0.47 0.47 0.41 0.37 0.35 0.33 0.33